Previsão horária em Juzhno-Kurilsk

Hoje, 22 Junho, Terça-feira

Tempo Temperatura Precipitação Vento Pressão Humidade
00:00 +9°C° 0 mm 1 m/s 753 mmHg 79%
01:00 +8°C° 0 mm 1 m/s 754 mmHg 80%
02:00 +8°C° 0 mm 1 m/s 754 mmHg 80%
03:00 +8°C° 0 mm 1 m/s 754 mmHg 79%
04:00 +9°C° 0 mm 1 m/s 754 mmHg 79%
05:00 +10°C° 0 mm 1 m/s 754 mmHg 75%
06:00 +11°C° 0 mm 1 m/s 755 mmHg 71%
07:00 +13°C° 0 mm 1 m/s 755 mmHg 66%
08:00 +14°C° 0 mm 1 m/s 755 mmHg 62%
09:00 +15°C° 0 mm 1 m/s 755 mmHg 58%
10:00 +18°C° 0 mm 1 m/s 755 mmHg 54%
11:00 +19°C° 0 mm 1 m/s 755 mmHg 52%
12:00 +19°C° 0 mm 1 m/s 755 mmHg 51%
13:00 +20°C° 0 mm 1 m/s 755 mmHg 50%
14:00 +19°C° 0 mm 1 m/s 755 mmHg 52%
15:00 +18°C° 0 mm 2 m/s 755 mmHg 53%
16:00 +17°C° 0 mm 2 m/s 755 mmHg 55%
17:00 +16°C° 0 mm 2 m/s 755 mmHg 61%
18:00 +15°C° 0 mm 2 m/s 756 mmHg 68%
19:00 +13°C° 0 mm 3 m/s 756 mmHg 74%
20:00 +12°C° 0 mm 3 m/s 756 mmHg 78%
21:00 +10°C° 0 mm 3 m/s 756 mmHg 81%
22:00 +9°C° 0 mm 3 m/s 756 mmHg 84%
23:00 +9°C° 0 mm 3 m/s 756 mmHg 85%

Amanhã, 23 Junho, Quarta-feira

Tempo Temperatura Precipitação Vento Pressão Humidade
00:00 +9°C° 0 mm 3 m/s 756 mmHg 86%
01:00 +9°C° 0 mm 2 m/s 756 mmHg 87%
02:00 +9°C° 0 mm 2 m/s 756 mmHg 87%
03:00 +9°C° 0 mm 2 m/s 756 mmHg 87%
04:00 +9°C° 0 mm 2 m/s 756 mmHg 87%
05:00 +10°C° 0 mm 2 m/s 756 mmHg 82%
06:00 +12°C° 0 mm 2 m/s 757 mmHg 78%
07:00 +13°C° 0 mm 2 m/s 757 mmHg 74%
08:00 +14°C° 0 mm 2 m/s 757 mmHg 71%
09:00 +15°C° 0 mm 2 m/s 757 mmHg 69%
10:00 +16°C° 0 mm 3 m/s 757 mmHg 66%
11:00 +17°C° 0 mm 3 m/s 757 mmHg 65%
12:00 +17°C° 0 mm 4 m/s 757 mmHg 65%
13:00 +18°C° 0 mm 4 m/s 757 mmHg 65%
14:00 +17°C° 0 mm 4 m/s 756 mmHg 67%
15:00 +17°C° 0 mm 4 m/s 756 mmHg 70%
16:00 +15°C° 0 mm 4 m/s 756 mmHg 73%
17:00 +14°C° 0 mm 4 m/s 756 mmHg 77%
18:00 +13°C° 0 mm 4 m/s 756 mmHg 82%
19:00 +12°C° 0 mm 4 m/s 757 mmHg 87%
20:00 +12°C° 0 mm 4 m/s 757 mmHg 90%
21:00 +11°C° 0 mm 4 m/s 757 mmHg 92%
22:00 +10°C° 0 mm 4 m/s 757 mmHg 95%
23:00 +10°C° 0 mm 4 m/s 756 mmHg 95%

Depois de amanhã, 24 Junho, Quinta-feira

Tempo Temperatura Precipitação Vento Pressão Humidade
00:00 +10°C° 0 mm 4 m/s 756 mmHg 95%
01:00 +10°C° 0 mm 4 m/s 756 mmHg 95%
02:00 +10°C° 0 mm 4 m/s 756 mmHg 95%
03:00 +10°C° 0 mm 4 m/s 756 mmHg 95%
04:00 +10°C° 0 mm 4 m/s 756 mmHg 94%
05:00 +11°C° 0 mm 4 m/s 756 mmHg 91%
06:00 +12°C° 0 mm 4 m/s 756 mmHg 88%
07:00 +12°C° 0 mm 4 m/s 756 mmHg 86%
08:00 +14°C° 0 mm 4 m/s 756 mmHg 78%
09:00 +17°C° 0 mm 4 m/s 756 mmHg 70%
10:00 +18°C° 0 mm 4 m/s 756 mmHg 62%
11:00 +18°C° 0 mm 4 m/s 756 mmHg 62%
12:00 +18°C° 0 mm 4 m/s 756 mmHg 63%
13:00 +19°C° 0 mm 4 m/s 756 mmHg 63%
14:00 +18°C° 0 mm 4 m/s 756 mmHg 65%
15:00 +18°C° 0 mm 4 m/s 756 mmHg 67%
16:00 +18°C° 0 mm 4 m/s 755 mmHg 69%
17:00 +17°C° 0 mm 4 m/s 756 mmHg 75%
18:00 +14°C° 0 mm 4 m/s 756 mmHg 81%
19:00 +13°C° 0 mm 4 m/s 756 mmHg 86%
20:00 +13°C° 0 mm 4 m/s 756 mmHg 89%
21:00 +12°C° 0 mm 4 m/s 756 mmHg 91%
22:00 +11°C° 0 mm 4 m/s 756 mmHg 93%
23:00 +11°C° 0 mm 4 m/s 756 mmHg 93%

25 Junho, Sexta-feira

Tempo Temperatura Precipitação Vento Pressão Humidade
00:00 +11°C° 0 mm 4 m/s 756 mmHg 93%
01:00 +10°C° 0 mm 4 m/s 756 mmHg 93%
02:00 +10°C° 0 mm 4 m/s 756 mmHg 93%
03:00 +10°C° 0 mm 4 m/s 756 mmHg 93%
04:00 +10°C° 0 mm 4 m/s 756 mmHg 93%
05:00 +11°C° 0 mm 4 m/s 756 mmHg 90%
06:00 +13°C° 0 mm 4 m/s 756 mmHg 87%
07:00 +14°C° 0 mm 4 m/s 756 mmHg 85%
08:00 +15°C° 0 mm 4 m/s 756 mmHg 80%
09:00 +17°C° 0 mm 4 m/s 756 mmHg 76%
10:00 +19°C° 0 mm 4 m/s 755 mmHg 72%
11:00 +19°C° 0 mm 5 m/s 755 mmHg 70%
12:00 +20°C° 0 mm 5 m/s 755 mmHg 68%
13:00 +21°C° 0 mm 5 m/s 755 mmHg 66%
14:00 +20°C° 0 mm 6 m/s 755 mmHg 67%
15:00 +20°C° 0 mm 6 m/s 755 mmHg 68%
16:00 +20°C° 0 mm 7 m/s 754 mmHg 68%
17:00 +18°C° 0 mm 7 m/s 754 mmHg 74%
18:00 +17°C° 0 mm 7 m/s 755 mmHg 80%
19:00 +16°C° 0 mm 7 m/s 755 mmHg 85%
20:00 +15°C° 0 mm 7 m/s 755 mmHg 89%
21:00 +14°C° 0 mm 6 m/s 755 mmHg 93%
22:00 +14°C° 0 mm 6 m/s 755 mmHg 96%
23:00 +14°C° 0 mm 5 m/s 755 mmHg 96%

26 Junho, Sábado

Tempo Temperatura Precipitação Vento Pressão Humidade
00:00 +14°C° 0 mm 5 m/s 755 mmHg 96%
01:00 +14°C° 0 mm 5 m/s 755 mmHg 96%
02:00 +13°C° 0 mm 4 m/s 755 mmHg 96%
03:00 +13°C° 0 mm 4 m/s 755 mmHg 96%
04:00 +13°C° 0 mm 3 m/s 755 mmHg 97%
05:00 +14°C° 0 mm 3 m/s 755 mmHg 94%
06:00 +16°C° 0 mm 3 m/s 755 mmHg 91%
07:00 +17°C° 0 mm 2 m/s 755 mmHg 88%
08:00 +18°C° 0 mm 2 m/s 755 mmHg 83%
09:00 +19°C° 0 mm 2 m/s 755 mmHg 78%
10:00 +20°C° 0 mm 2 m/s 755 mmHg 73%
11:00 +21°C° 0 mm 1 m/s 755 mmHg 72%
12:00 +22°C° 0 mm 1 m/s 755 mmHg 71%
13:00 +22°C° 0 mm 1 m/s 755 mmHg 69%
14:00 +22°C° 0 mm 1 m/s 755 mmHg 71%
15:00 +20°C° 0 mm 2 m/s 755 mmHg 72%
16:00 +20°C° 0 mm 2 m/s 755 mmHg 73%
17:00 +19°C° 0 mm 2 m/s 755 mmHg 78%
18:00 +19°C° 0 mm 1 m/s 755 mmHg 83%
19:00 +19°C° 0 mm 1 m/s 755 mmHg 88%
20:00 +16°C° 0 mm 1 m/s 756 mmHg 90%
21:00 +15°C° 0 mm 2 m/s 756 mmHg 93%
22:00 +14°C° 0 mm 2 m/s 756 mmHg 96%
23:00 +14°C° 0 mm 2 m/s 756 mmHg 94%

27 Junho, Domingo

Tempo Temperatura Precipitação Vento Pressão Humidade
00:00 +15°C° 0 mm 2 m/s 756 mmHg 93%
01:00 +15°C° 0 mm 1 m/s 755 mmHg 92%
02:00 +15°C° 0 mm 1 m/s 756 mmHg 93%
03:00 +15°C° 0 mm 1 m/s 756 mmHg 95%
04:00 +15°C° 0 mm 1 m/s 756 mmHg 96%
05:00 +15°C° 0 mm 1 m/s 756 mmHg 93%
06:00 +16°C° 0 mm 1 m/s 756 mmHg 91%
07:00 +16°C° 0 mm 1 m/s 757 mmHg 88%
08:00 +18°C° 0 mm 1 m/s 756 mmHg 84%
09:00 +18°C° 0 mm 2 m/s 756 mmHg 80%
10:00 +19°C° 0 mm 2 m/s 756 mmHg 76%
11:00 +19°C° 0 mm 2 m/s 756 mmHg 75%
12:00 +20°C° 0 mm 1 m/s 756 mmHg 74%
13:00 +20°C° 0 mm 1 m/s 755 mmHg 73%
14:00 +18°C° 0 mm 2 m/s 755 mmHg 75%
15:00 +18°C° 0 mm 2 m/s 755 mmHg 77%
16:00 +17°C° 0 mm 2 m/s 755 mmHg 79%
17:00 +16°C° 0 mm 2 m/s 755 mmHg 84%
18:00 +15°C° 0 mm 2 m/s 755 mmHg 88%
19:00 +14°C° 0 mm 2 m/s 755 mmHg 93%
20:00 +13°C° 0 mm 2 m/s 755 mmHg 94%
21:00 +13°C° 0 mm 2 m/s 755 mmHg 95%
22:00 +11°C° 0 mm 3 m/s 755 mmHg 97%
23:00 +11°C° 0 mm 3 m/s 755 mmHg 97%
Mostrar mais

Necessitamos do seu Consentimento

A Meteoprog e os seus Fornecedores de Serviços podem armazenar e aceder a dados pessoais como cookies, identificadores do dispositivo ou outras tecnologias semelhantes existentes no seu dispositivo e processar estes dados para personalizar conteúdos e anúncios, assim como funcionalidades nas redes sociais e análise de tráfego.

  • Armazenar e/ou aceder a informações no seu dispositivo

    Os cookies, identificadores do dispositivo ou outras informações podem ser armazenados ou acedidos no seu dispositivo, para os fins acima indicados.

  • Anúncios e conteúdos personalizados, medição de anúncios e conteúdos, dados sobre o público-alvo e desenvolvimento de produtos

    Os anúncios e os conteúdos podem ser personalizados com base num perfil. Podem ser adicionados dados adicionais para uma maior personalização dos anúncios e dos conteúdos. A eficácia dos anúncios e dos conteúdos pode ser medida. Podem ser obtidas informações sobre o público que visualizou os anúncios e os conteúdos. Estes dados podem ser usados para desenvolver ou melhorar sistemas, softwares ou a experiência do utilizador.

Ao clicar em "Eu concordo”, permitirá o uso de cookies, identificadores do dispositivo e web beacons mencionados ou outras tecnologias semelhantes. As configurações do navegador do seu dispositivo podem ser alteradas.

Para certos fins, podem ser invocados interesses legítimos ao invés de consentimento. Pode ler mais informação sobre este assunto na nossa Política de Privacidade e Cookies.